K5SVV Weather Reports


time (UTC)temp
C
wind
direction
speed
KPH
gust
KPH
rain 1hr
cm
rain 24hr
cm
rain mn
cm
humidity
%
barometer
mb
20260504050738 18 178 6.4 9.7 0.00 0.00 0.00 66 1015.4
20260504050236 18 205 6.4 9.7 0.00 0.00 0.00 66 1015.3
20260504045733 18 196 8.0 11.3 0.00 0.00 0.00 66 1015.3
20260504045227 18 190 9.7 12.9 0.00 0.00 0.00 66 1015.5
20260504044726 18 181 3.2 3.2 0.00 0.00 0.00 66 1015.5
20260504044223 18 198 6.4 11.3 0.00 0.00 0.00 66 1015.5
20260504043720 18 186 8.0 11.3 0.00 0.00 0.00 66 1015.4
20260504043216 18 190 6.4 6.4 0.00 0.00 0.00 65 1015.6
20260504042714 18 190 0.0 0.0 0.00 0.00 0.00 66 1015.6
20260504042210 18 172 6.4 6.4 0.00 0.00 0.00 66 1015.7
20260504041707 18 193 8.0 11.3 0.00 0.00 0.00 66 1015.7
20260504041202 18 190 8.0 9.7 0.00 0.00 0.00 66 1015.6
20260504040659 18 171 6.4 6.4 0.00 0.00 0.00 65 1015.6
20260504040156 18 200 3.2 3.2 0.00 0.00 0.00 65 1015.7
20260504035653 18 180 4.8 9.7 0.00 0.00 0.00 65 1015.8
20260504035150 18 175 6.4 9.7 0.00 0.00 0.00 65 1015.5
20260504034647 18 175 0.0 0.0 0.00 0.00 0.00 65 1015.7
20260504034144 18 150 3.2 3.2 0.00 0.00 0.00 65 1015.6
20260504033642 18 195 0.0 0.0 0.00 0.00 0.00 65 1015.6
20260504033139 18 176 6.4 9.7 0.00 0.00 0.00 64 1015.7
20260504032636 18 159 1.6 4.8 0.00 0.00 0.00 63 1015.6
20260504032133 18 175 4.8 4.8 0.00 0.00 0.00 63 1015.8
20260504031630 18 189 4.8 9.7 0.00 0.00 0.00 62 1015.5
20260504031126 18 193 8.0 9.7 0.00 0.00 0.00 62 1015.7
20260504030623 19 158 4.8 4.8 0.00 0.00 0.00 61 1015.6
20260504030120 19 189 6.4 6.4 0.00 0.00 0.00 61 1015.3
20260504025617 19 198 0.0 0.0 0.00 0.00 0.00 60 1015.5
20260504025114 19 153 6.4 9.7 0.00 0.00 0.00 60 1015.4
20260504024611 19 176 1.6 6.4 0.00 0.00 0.00 59 1015.5
20260504024107 20 193 6.4 9.7 0.00 0.00 0.00 59 1015.6
20260504023604 20 186 6.4 9.7 0.00 0.00 0.00 59 1015.5
20260504023100 20 208 6.4 9.7 0.00 0.00 0.00 58 1015.2
20260504022556 20 201 1.6 4.8 0.00 0.00 0.00 59 1015.5
20260504022052 20 206 6.4 6.4 0.00 0.00 0.00 58 1015.3
20260504021550 20 177 8.0 11.3 0.00 0.00 0.00 58 1015.4
20260504021047 20 204 8.0 9.7 0.00 0.00 0.00 58 1015.3
20260504020544 20 196 1.6 3.2 0.00 0.00 0.00 58 1015.6
20260504020040 20 181 4.8 4.8 0.00 0.00 0.00 58 1015.4
20260504015537 20 188 0.0 0.0 0.00 0.00 0.00 58 1015.5
20260504015032 20 189 0.0 3.2 0.00 0.00 0.00 58 1015.3
20260504014529 20 186 4.8 6.4 0.00 0.00 0.00 57 1015.4
20260504014026 20 162 0.0 1.6 0.00 0.00 0.00 57 1015.2
20260504013524 20 185 0.0 0.0 0.00 0.00 0.00 56 1015.1
20260504013021 21 159 1.6 4.8 0.00 0.00 0.00 56 1015.1
20260504012518 21 201 3.2 4.8 0.00 0.00 0.00 56 1015.0
20260504012016 21 186 0.0 0.0 0.00 0.00 0.00 55 1015.1
20260504011512 21 183 3.2 4.8 0.00 0.00 0.00 54 1015.5
20260504011008 21 169 1.6 3.2 0.00 0.00 0.00 54 1015.2
20260504010504 21 174 0.0 0.0 0.00 0.00 0.00 53 1015.3
20260504010000 21 199 6.4 9.7 0.00 0.00 0.00 52 1015.3
20260504005457 22 177 4.8 6.4 0.00 0.00 0.00 51 1015.3
20260504004955 22 194 3.2 3.2 0.00 0.00 0.00 52 1015.1
20260504004452 22 199 6.4 9.7 0.00 0.00 0.00 50 1015.3
20260504003949 22 192 0.0 0.0 0.00 0.00 0.00 51 1015.3
20260504003445 22 184 4.8 4.8 0.00 0.00 0.00 49 1015.2
20260504002942 23 181 6.4 9.7 0.00 0.00 0.00 49 1015.2
20260504002439 23 195 8.0 11.3 0.00 0.00 0.00 48 1015.2
20260504001937 23 193 3.2 9.7 0.00 0.00 0.00 48 1015.5
20260504001434 23 172 4.8 4.8 0.00 0.00 0.00 46 1015.4
20260504000930 23 166 8.0 11.3 0.00 0.00 0.00 46 1015.3
20260504000427 23 178 8.0 12.9 0.00 0.00 0.00 45 1015.4
20260503235925 24 191 8.0 14.5 0.00 0.00 0.00 45 1015.4
20260503235422 24 198 9.7 12.9 0.00 0.00 0.00 44 1015.3
20260503234920 24 182 9.7 12.9 0.00 0.00 0.00 44 1015.2
20260503234417 25 189 6.4 6.4 0.00 0.00 0.00 44 1015.4
20260503233915 25 169 9.7 14.5 0.00 0.00 0.00 43 1015.5
20260503233411 25 153 4.8 9.7 0.00 0.00 0.00 44 1015.5
20260503232908 25 169 9.7 12.9 0.00 0.00 0.00 44 1015.7
20260503232405 25 167 11.3 14.5 0.00 0.00 0.00 41 1015.6
20260503231903 25 188 12.9 14.5 0.00 0.00 0.00 40 1015.8
20260503231400 25 199 8.0 9.7 0.00 0.00 0.00 40 1015.8
20260503230856 25 220 11.3 14.5 0.00 0.00 0.00 38 1015.9
20260503230352 25 198 9.7 11.3 0.00 0.00 0.00 38 1015.8
20260503225850 25 208 9.7 11.3 0.00 0.00 0.00 39 1015.7
20260503225346 25 181 9.7 12.9 0.00 0.00 0.00 38 1015.8
20260503224843 25 197 9.7 11.3 0.00 0.00 0.00 39 1015.8
20260503224340 26 187 14.5 16.1 0.00 0.00 0.00 38 1015.7
20260503223838 25 181 3.2 9.7 0.00 0.00 0.00 39 1015.8
20260503223335 25 180 9.7 14.5 0.00 0.00 0.00 38 1015.8
20260503222830 25 165 14.5 16.1 0.00 0.00 0.00 38 1015.9
20260503222329 25 186 20.9 25.7 0.00 0.00 0.00 38 1015.9
20260503221827 25 191 9.7 11.3 0.00 0.00 0.00 41 1016.0
20260503221325 25 202 14.5 17.7 0.00 0.00 0.00 39 1016.1
20260503220815 25 195 4.8 6.4 0.00 0.00 0.00 39 1016.1
20260503220312 26 190 14.5 17.7 0.00 0.00 0.00 40 1016.3
20260503215809 26 209 12.9 17.7 0.00 0.00 0.00 40 1016.1
20260503215306 26 222 8.0 12.9 0.00 0.00 0.00 41 1016.3
20260503214804 26 222 6.4 11.3 0.00 0.00 0.00 43 1016.3
20260503214301 26 247 1.6 3.2 0.00 0.00 0.00 41 1016.3
20260503213758 26 228 9.7 11.3 0.00 0.00 0.00 39 1016.5
20260503213255 26 214 16.1 17.7 0.00 0.00 0.00 39 1016.6
20260503212752 26 201 16.1 20.9 0.00 0.00 0.00 41 1016.4
20260503212250 25 175 8.0 14.5 0.00 0.00 0.00 43 1016.6
20260503211747 26 198 8.0 9.7 0.00 0.00 0.00 40 1016.7
20260503211243 26 203 6.4 6.4 0.00 0.00 0.00 43 1016.8
20260503210739 26 158 4.8 6.4 0.00 0.00 0.00 41 1016.8
20260503210237 26 166 8.0 11.3 0.00 0.00 0.00 41 1016.6
20260503205732 26 170 8.0 11.3 0.00 0.00 0.00 41 1017.1
20260503205228 26 184 11.3 14.5 0.00 0.00 0.00 42 1017.2
20260503204725 26 176 11.3 12.9 0.00 0.00 0.00 42 1017.0
20260503204223 26 181 9.7 14.5 0.00 0.00 0.00 43 1017.5
20260503203720 26 230 6.4 11.3 0.00 0.00 0.00 41 1017.4
20260503203217 26 274 6.4 9.7 0.00 0.00 0.00 41 1017.5
20260503202714 26 201 9.7 11.3 0.00 0.00 0.00 38 1017.6
20260503202212 26 173 6.4 9.7 0.00 0.00 0.00 41 1017.8
20260503201710 26 171 8.0 12.9 0.00 0.00 0.00 41 1017.9
20260503201207 25 182 8.0 11.3 0.00 0.00 0.00 42 1018.1
20260503200703 25 193 3.2 12.9 0.00 0.00 0.00 44 1017.7
20260503200200 26 180 14.5 16.1 0.00 0.00 0.00 43 1018.1
20260503195656 26 146 12.9 17.7 0.00 0.00 0.00 39 1017.9
20260503195154 26 187 9.7 11.3 0.00 0.00 0.00 42 1018.1
20260503194650 25 169 8.0 12.9 0.00 0.00 0.00 45 1017.9
20260503194146 25 200 9.7 11.3 0.00 0.00 0.00 43 1018.5
20260503193643 25 193 11.3 14.5 0.00 0.00 0.00 38 1018.2
20260503193138 25 227 9.7 14.5 0.00 0.00 0.00 44 1018.5
20260503192634 25 201 11.3 12.9 0.00 0.00 0.00 42 1018.6
20260503192130 25 141 12.9 16.1 0.00 0.00 0.00 41 1018.5
20260503191627 25 225 6.4 14.5 0.00 0.00 0.00 46 1019.0
20260503191124 25 204 4.8 4.8 0.00 0.00 0.00 47 1019.1
20260503190621 25 197 14.5 16.1 0.00 0.00 0.00 47 1019.0
20260503190118 25 224 14.5 20.9 0.00 0.00 0.00 46 1019.1
20260503185614 25 201 12.9 16.1 0.00 0.00 0.00 45 1019.3
20260503185109 25 170 8.0 11.3 0.00 0.00 0.00 48 1019.1
20260503184604 25 179 3.2 4.8 0.00 0.00 0.00 48 1019.0
20260503184101 25 205 12.9 20.9 0.00 0.00 0.00 44 1019.3
20260503183557 25 230 3.2 4.8 0.00 0.00 0.00 49 1019.3
20260503183055 25 197 6.4 6.4 0.00 0.00 0.00 47 1019.6
20260503182553 25 200 9.7 12.9 0.00 0.00 0.00 45 1019.4
20260503182051 25 226 0.0 1.6 0.00 0.00 0.00 47 1019.5
20260503181548 25 253 6.4 9.7 0.00 0.00 0.00 45 1019.9
20260503181044 25 253 8.0 11.3 0.00 0.00 0.00 43 1019.8
20260503180541 25 226 8.0 11.3 0.00 0.00 0.00 45 1019.7
20260503180039 25 223 1.6 3.2 0.00 0.00 0.00 45 1020.2
20260503175536 25 212 9.7 11.3 0.00 0.00 0.00 48 1019.9
20260503175033 24 256 9.7 12.9 0.00 0.00 0.00 45 1020.1
20260503174530 25 198 17.7 22.5 0.00 0.00 0.00 49 1020.2
20260503174026 24 184 1.6 3.2 0.00 0.00 0.00 52 1020.4
20260503173522 24 193 11.3 12.9 0.00 0.00 0.00 50 1020.5
20260503173018 23 205 9.7 11.3 0.00 0.00 0.00 52 1020.3
20260503172516 24 238 3.2 9.7 0.00 0.00 0.00 53 1020.6
20260503172013 23 182 3.2 9.7 0.00 0.00 0.00 56 1020.8
20260503171509 23 187 6.4 9.7 0.00 0.00 0.00 54 1020.9
20260503171007 23 225 12.9 14.5 0.00 0.00 0.00 53 1020.8
20260503170503 23 264 9.7 12.9 0.00 0.00 0.00 54 1020.8
20260503150855 20 215 11.3 16.1 0.00 0.00 0.00 64 1021.1
20260503150351 20 203 0.0 1.6 0.00 0.00 0.00 66 1021.1
20260503131245 16 212 6.4 6.4 0.00 0.00 0.00 71 1020.7
20260503130743 16 258 6.4 9.7 0.00 0.00 0.00 71 1020.6
20260503130240 16 231 6.4 6.4 0.00 0.00 0.00 72 1020.7
20260503120206 13 208 8.0 9.7 0.00 0.00 0.00 79 1020.1
20260503110633 13 223 3.2 3.2 0.00 0.00 0.00 81 1019.6
20260503110131 13 227 4.8 6.4 0.00 0.00 0.00 80 1019.4
20260503081434 14 195 8.0 11.3 0.00 0.00 0.00 75 1019.3
20260503080932 14 195 4.8 6.4 0.00 0.00 0.00 75 1019.2
20260503080428 14 222 6.4 6.4 0.00 0.00 0.00 75 1019.3
20260503072904 14 225 3.2 6.4 0.00 0.00 0.00 72 1019.5
20260503072401 14 205 4.8 6.4 0.00 0.00 0.00 72 1019.8
20260503071858 15 196 0.0 0.0 0.00 0.00 0.00 71 1019.8
20260503071355 15 212 1.6 3.2 0.00 0.00 0.00 70 1019.7
20260503070851 15 201 0.0 0.0 0.00 0.00 0.00 71 1019.8
20260503070349 15 201 4.8 6.4 0.00 0.00 0.00 70 1019.7